Погода в Свободном

Украина / Донецкая область     47°21′39″N   38°03′56″E
темп.,
°C
ветер,
м/с
пор.,
м/с
влажн.,
%
обл.,
%
осадки,
мм/ч
давл.,
гПа
погр.,
м
3 марта, ср
ср323:00+3зюз71376100 0.0 1018777
02:00+1зсз61092100 0.3 1016665
05:00+2сз71293100 0.5 1016688
08:00+2ссз71182100 0.6 1019879
11:00+4ссз7963100 0.0 10211083
14:00+4ссз7105996 0.1 10221341
17:00+3ссз696445 0.0 1023862
20:00+1сз487222 0.0 1025261
4 марта, чт
чт423:000зсз23730 0.0 102562
02:000зюз35760 0.0 1026128
05:000юз37790 0.0 1025149
08:00+2зюз59640 0.0 1024502
11:00+5юз710575 0.0 1022955
14:00+6юз912652 0.0 1020979
17:00+4юз814700 0.0 1017689
20:00+3юз715813 0.0 1017477
5 марта, пт
пт523:00+3юз8158598 0.0 1016525
02:00+3юз8178749 0.0 1015584
05:00+3юз8168642 0.0 1014567
08:00+4юз7128364 0.0 1014630
11:00+6юз81178100 0.0 1014657
14:00+7юз9137494 0.0 1013743
17:00+5ююз9168358 0.0 1012582
20:00+5юз8178679 0.0 1012553
6 марта, сб
сб623:00+4юз81590100 0.0 1011449
02:00+4зюз5109494 0.0 1012280
05:00+4з3697100 0.2 1013156
08:00+3с5891100 0.8 1014370
11:00+4ссз5768100 0.0 1015866
14:00+4ссз5658100 0.0 10161090
17:00+3ссз5655100 0.0 10171282
20:00+2ссз4858100 0.0 1020441
7 марта, вс
вс723:00−1ссз6115777 0.0 1022754
02:00−2сз694938 0.0 1023812
05:00−2сз57490 0.0 10251011
08:00−2сз57430 0.0 10261051
11:00+1зсз56380 0.0 10251420
14:00+2зюз68400 0.0 10231587
17:00+1зюз48510 0.0 1021642
20:000зюз511510 0.0 1021573